Aérodrome :
LOGIN :

S'inscrire | Disclaimer

   EN    FR    IT 

 










Légende :    VFR   VFR Marginal   IFR   IFR Intensif   IFR Très Intensif
Visi : 
Plafond : 
>= 8 km
>= 3000ft
5 à 8 km
1000 à 3000 ft
1500m à 5 km
500 à 1000 ft
800 à 1500m
200 à 500 ft
< 800m
< 200 ft
Symboles :   Orages  Brouillard  Fortes neiges  Fortes précipitations  Vent > 20 kt
SIGMETs :   Divers  Orages  Givrage  Turbulence  Onde Orograph.  Cendres Volcan.







- Altitude de l'aérodrome : 55 ft
- Voir les cartes d'approche


EGNO - Warton Preston

DERNIER METAR :
  • 191150Z 14011KT 5000 -RA FEW007 BKN009 15/15 Q1006

METARs EXPIRÉS :
  • 191120Z 14011KT 8000 -RA SCT008 BKN011 16/15 Q1006
  • 191050Z 15010KT 120V180 8000 -RA SCT009 BKN013 15/15 Q1006
  • 191020Z 15007KT 120V180 8000 -RA SCT007 15/15 Q1007
  • 190950Z 15010KT 8000 -RA SCT007 15/14 Q1007
  • 190920Z 14010KT 9000 -RA SCT008 14/14 Q1007

TAF TAF EGNO
Valide du 19 à 12h jusqu'au 19 à 18h UTC


191106Z 1912/1918 15010KT 9999 SCT020
PROB30
TEMPO 1912/1918 18018G28KT 4000 +SHRA TSGS BKN010
ATIS : +44 1772 856 060
Pas de NOTAMs connus pour ce terrain.



MET'MAP, la Météo Aéronautique d'un coup d'oeil ! - Copyright ORBIFLY Décembre 2007 - Disclaimer

ORBIFLY MET'MAP TEAM :

Programmation & Développement : Alexandra Zaïnal
Conception & Développement : Baudouin d'Aumeries
Co-Programmation & Développement : Marc-Olivier Méhu
Soutien technique & logistique : Manuel Goepfert

Contact : metmap@orbifly.com




SOURCES & CREDITS :

   NOAA